Location: Miles
(41.4492°N, 81.6087°W)
Time: 15:55:00
(UTC+00:00)

S-56A Canister/Altair - Pass Details

Date: 25 September 2024
Orbit: 636 x 2487 km, 38.9° (Epoch: 12 October)

Event Time Altitude Azimuth Distance (km) Brightness Sun altitude
Rises 00:24:13 0° 274° (W) 3,057 12.6 -13.0°
Reaches altitude 10° 00:26:20 10° 270° (W) 2,241 11.3 -13.4°
Maximum altitude 00:31:21 58° 191° (SSW) 1,035 8.1 -14.3°
Enters shadow 00:36:13 20° 119° (ESE) 2,322 9.4 -15.2°
